Flag for United Kingdom Weather past 2 weeks in Worcester, England, United Kingdom

Now
32 °F

Fog.


Feels Like: 32 °F
Forecast: 28 / 38 °F
Wind: No wind

Location: Pershore

Current Time: Dec 28, 2014 at 11:01:25 AM

Latest Report: Dec 28, 2014 at 10:00 AM


Visibility: 4 mi

Pressure: 30.50 "Hg

Humidity: 96%

Dew point: 31 °F

Location of WorcesterLocation

Historic Weather in Worcester — Graph

°F

Worcester temperature yesterday

Maximum temperature yesterday: 41 °F (at 1:00 PM)
Minimum temperature yesterday: 32 °F (at 8:00 AM)
Average temperature yesterday: 36 °F

Past Weeks' High & Low Weather Summary

 TemperatureHumidityPressure
High57 °F (Dec 18, 2:00 PM)99% (Dec 15, 10:00 PM)30.53 "Hg (Dec 15, 10:00 PM)
Low27 °F (Dec 13, 9:00 AM)60% (Dec 24, 2:00 PM)29.62 "Hg (Dec 26, 10:00 PM)
Average45 °F85%30.02 "Hg
* Reported Dec 13 9:00 AM — Dec 28 9:00 AM, Worcester, Weather by CustomWeather, © 2014

Note: Actual official high and low records may vary slightly from our data, if they occured in-between our weather recording intervals... More about our weather records

Advertising

Worcester weather history for previous 24 hours

 ConditionsComfort  
Time TempWeatherWind HumidityBarometerVisibility
9:00 AM
Dec 28
29 °FFog.3 mph98%30.45 "Hg2 mi
8:00 AM28 °FFog.3 mph97%30.41 "Hg2 mi
7:00 AM29 °FFog.6 mph97%30.36 "Hg2 mi
6:00 AM30 °FFog.5 mph98%30.32 "Hg3 mi
5:00 AM29 °FFog.2 mph97%30.28 "Hg2 mi
4:00 AM32 °FFog.3 mph96%30.24 "Hg2 mi
3:00 AM32 °FFog.3 mph97%30.21 "Hg3 mi
2:00 AM32 °FFog.6 mph95%30.16 "Hg3 mi
1:00 AM35 °FSmoke.7 mph92%30.12 "Hg5 mi
12:00 AM35 °FSmoke.9 mph92%30.08 "Hg4 mi
11:00 PM
Dec 27
35 °FFog.8 mph95%30.04 "Hg3 mi
10:00 PM35 °FFog.7 mph96%30.00 "Hg3 mi
9:00 PM34 °FFog.5 mph97%29.96 "Hg3 mi
8:00 PM35 °FFog.7 mph97%29.94 "Hg4 mi
7:00 PM35 °FFog.5 mph95%29.91 "Hg7 mi
6:00 PM36 °FChilly.8 mph95%29.87 "Hg16 mi
5:00 PM37 °FFog.8 mph91%29.85 "Hg9 mi
4:00 PM38 °FChilly.3 mph89%29.83 "Hg31 mi
3:00 PM39 °FChilly.8 mph87%29.83 "Hg31 mi
2:00 PM40 °FChilly.13 mph85%29.82 "Hg31 mi
1:00 PM41 °FQuite cool.6 mph87%29.83 "Hg28 mi
12:00 PM40 °FQuite cool.9 mph86%29.85 "Hg31 mi
11:00 AM39 °FChilly.5 mph89%29.86 "Hg17 mi
Weather by CustomWeather, © 2014

See weather overviewHow to use our weather pages